Location: ???? ??
(36.0534°N, 43.5630°E)
Time: 03:44:24
(UTC+00:00)

ADEOS Rocket - Pass Details

Date: 18 September 2019
Orbit: 859 x 1306 km, 98.7° (Epoch: 15 October)

Event Time Altitude Azimuth Distance (km) Brightness Sun altitude
Rises 16:43:56 0° 16° (NNE) 4,107 6.3 -19.6°
Reaches altitude 10° 16:46:33 10° 20° (NNE) 3,189 5.7 -20.1°
Maximum altitude 16:53:56 65° 101° (E) 1,399 3.5 -21.5°
Drops below altitude 10° 17:01:38 10° 182° (S) 3,313 5.6 -23.0°
Sets 17:04:23 0° 186° (S) 4,277 6.2 -23.5°
